Location: Ohmer (historical)
(38.0096°N, 122.0227°W)
Time: 01:27:12
(UTC+00:00)

Cosmos 1898 Rocket - Pass Details

Date: 14 February 2026
Orbit: 749 x 779 km, 74.0° (Epoch: 10 March)

Event Time Altitude Azimuth Distance (km) Brightness Sun altitude
Rises 14:07:40 0° 195° (SSW) 3,227 6.7 -10.7°
Reaches altitude 10° 14:10:02 10° 195° (SSW) 2,308 5.9 -10.3°
Maximum altitude 14:15:17 85° 108° (ESE) 784 3.6 -9.2°
Drops below altitude 10° 14:20:36 10° 20° (NNE) 2,336 6.1 -8.2°
Sets 14:23:00 0° 19° (NNE) 3,268 6.9 -7.7°
